Location: Warszawa
(52.2500°N, 21.0000°E)
Time: 06:59:09
(UTC+01:00)

Tiros 1 despin weight - Visible Passes

Search period start: 06 February 2023 00:00
Search period end: 16 February 2023 00:00
Orbit: 589 x 636 km, 48.2° (Epoch: 05 February)

Date Brightness Start Highest point End Pass type
(mag) Time Alt. Az. Time Alt. Az. Time Alt. Az.
06 Feb ? 18:37:42 10° W 18:41:59 42° SSW 18:43:27 31° SSE visible
06 Feb ? 20:19:35 10° WSW 20:20:24 13° WSW 20:20:24 13° WSW visible
07 Feb ? 17:11:06 10° WSW 17:15:32 51° S 17:19:54 10° ESE visible
07 Feb ? 18:52:27 10° W 18:56:31 33° SSW 18:57:45 28° S visible
08 Feb ? 17:25:45 10° W 17:30:08 47° S 17:34:27 10° ESE visible
08 Feb ? 19:07:20 10° W 19:10:58 24° SSW 19:12:07 21° S visible
09 Feb ? 17:40:27 10° W 17:44:42 39° SSW 17:48:53 10° SE visible
09 Feb ? 19:22:32 10° WSW 19:25:20 16° SW 19:26:34 15° SSW visible
10 Feb ? 17:55:13 10° W 17:59:12 30° SSW 18:03:07 10° SE visible
11 Feb ? 18:10:08 10° W 18:13:37 22° SSW 18:17:02 10° SSE visible
12 Feb ? 18:25:29 10° WSW 18:27:55 14° SW 18:30:20 10° S visible
15 Feb ? 17:28:31 10° WSW 17:30:27 13° SW 17:32:23 10° SSW visible
